Flag for Mexico Weather past 2 weeks in Mexicali, Baja California, Mexico

Now
81 °F

Clear.


Feels Like: 80 °F
Forecast: 67 / 97 °F
Wind: 6 mph from Southwest

Location: Imperial County Airport

Current Time: May 27, 2015 at 11:57:13 PM

Latest Report: May 27, 2015 at 10:53 PM


Visibility: 10 mi

Pressure: 29.81 "Hg

Humidity: 27%

Dew point: 44 °F

Location of MexicaliLocation

Historic Weather in Mexicali — Graph

°F

Mexicali temperature yesterday

Maximum temperature yesterday: 93 °F (at 4:53 PM)
Minimum temperature yesterday: 65 °F (at 4:53 AM)
Average temperature yesterday: 79 °F

Past Weeks' High & Low Weather Summary

 TemperatureHumidityPressure
High94 °F (May 27, 3:53 PM)97% (May 16, 2:53 AM)29.98 "Hg (May 16, 2:53 AM)
Low50 °F (May 16, 5:53 AM)10% (May 13, 12:53 PM)29.70 "Hg (May 13, 6:53 PM)
Average72 °F42%29.84 "Hg
* Reported May 12 10:53 PM — May 27 10:53 PM, Mexicali, Weather by CustomWeather, © 2015

Note: Actual official high and low records may vary slightly from our data, if they occured in-between our weather recording intervals... More about our weather records

Advertising

Mexicali weather history for previous 24 hours

 ConditionsComfort  
Time TempWeatherWind HumidityBarometerVisibility
10:53 PM
Wed, May 27
81 °FClear.6 mph27%29.81 "Hg10 mi
9:53 PM82 °FClear.6 mph27%29.80 "Hg10 mi
8:53 PM88 °FClear.9 mph20%29.77 "Hg10 mi
7:53 PM91 °FSunny.6 mph20%29.76 "Hg10 mi
6:53 PM94 °FSunny.6 mph17%29.75 "Hg10 mi
5:53 PM94 °FSunny.No wind19%29.75 "Hg10 mi
4:53 PM94 °FSunny.6 mph19%29.76 "Hg10 mi
3:53 PM94 °FSunny.6 mph21%29.77 "Hg10 mi
2:53 PM93 °FSunny.8 mph22%29.79 "Hg10 mi
1:53 PM92 °FSunny.7 mph23%29.81 "Hg10 mi
12:53 PM89 °FSunny.7 mph29%29.83 "Hg10 mi
11:53 AM86 °FSunny.6 mph33%29.85 "Hg10 mi
10:53 AM83 °FSunny.7 mph43%29.86 "Hg10 mi
9:53 AM79 °FSunny.6 mph47%29.86 "Hg10 mi
8:53 AM76 °FSunny.7 mph52%29.87 "Hg10 mi
7:53 AM74 °FSunny.No wind53%29.85 "Hg10 mi
6:53 AM69 °FSunny.5 mph66%29.84 "Hg10 mi
5:53 AM70 °FClear.No wind57%29.83 "Hg10 mi
4:53 AM70 °FClear.6 mph59%29.81 "Hg10 mi
3:53 AM71 °FClear.8 mph59%29.81 "Hg10 mi
2:53 AM72 °FClear.7 mph55%29.80 "Hg10 mi
1:53 AM73 °FClear.5 mph48%29.80 "Hg10 mi
12:53 AM75 °FClear.5 mph39%29.81 "Hg10 mi
11:53 PM
Tue, May 26
77 °FClear.No wind36%29.81 "Hg10 mi
Weather by CustomWeather, © 2015

See weather overviewHow to use our weather pages